sat.trackr.live / text

‹ back to catalog

CZ-12B R/B

NORAD 69327 · 2026-121C

ROCKET_BODY UNKNOWN UNKNOWN

§ Identity

Operator
Country
PRC
Launch date
2026-06-01
Launch site
JSC
Launch vehicle
Mass (kg)
RCS (m²)

External: N2YO · Heavens-Above · Gunter

§ Orbital elements

Epoch: 2026-06-30T18:29:13.153632Z

Period
102.56 min
Inclination
89.0332°
Eccentricity
0.0193715
Mean motion
14.04091603 rev/d
Perigee alt
739.1 km
Apogee alt
1,020.3 km
Semi-major
7,257.8 km
B*
3.0990e-4
RAAN
298.9727°
Arg perigee
323.7512°
Mean anomaly
35.0669°
Rev number
413

§ Raw data

CZ-12B R/B1 69327U 26121C   26181.77029113  .00000591  00000+0  30990-3 0  99952 69327  89.0332 298.9727 0193715 323.7512  35.0669 14.04091603  4132

JSON: /api/v1/satellites/69327 · /tle

For live sub-satellite position, see the globe view (requires WebGL).

§ Visibility from observer

Set your observer location to see the next 7 days of passes ≥ 10°. The values pass through the URL so the page stays shareable.

No JS? Fill the form by hand. The geolocation button needs JavaScript.